Regional Weather Roundup
Issued by NWS

Home | Current Version | Previous Version | Graphics & Text | Print | Product List | Glossary On
Versions: 1 2 3 4 5 6 7 8 9 10 11 12 13 14 15 16 17 18 19 20 21 22 23 24 25 26 27 28 29 30 31 32 33 34 35 36 37 38 39 40 41 42 43 44 45 46 47 48 49 50
000
ASUS43 KOAX 230910
RWRNE

WEATHER ROUNDUP FOR NEBRASKA
NATIONAL WEATHER SERVICE OMAHA NE
400 AM CDT SAT SEP 23 2017

NOTES: SATELLITE DATA IS BEING USED TO AUGMENT CLOUD COVER ABOVE
       12000 FEET.
       "FAIR" INDICATES FEW OR NO CLOUDS BELOW 12,000 FEET WITH NO
       SIGNIFICANT WEATHER AND/OR OBSTRUCTIONS TO VISIBILITY.


NEZ001>004-019>022-054>056-231000-
NEBRASKA PANHANDLE

CITY           SKY/WX    TMP DP  RH WIND       PRES   REMARKS
SCOTTSBLUFF    CLOUDY    48  38  68 E6        30.00R
ALLIANCE       CLOUDY    46  38  73 N9        29.98R
CHADRON        CLOUDY    45  38  76 NE8       30.03R
GORDON         PTSUNNY   46  41  85 NE16      29.97F
KIMBALL        LGT RAIN  46  42  87 NE18      29.96S
SIDNEY         CLOUDY    46  41  82 NE12      29.95R
$$

NEZ057>060-069>072-079>082-231000-
SOUTHWEST NEBRASKA

CITY           SKY/WX    TMP DP  RH WIND       PRES   REMARKS
NORTH PLATTE   CLOUDY    55  49  80 N13       29.91S
IMPERIAL       MOCLDY    56  47  71 NE16      29.87S
LEXINGTON      CLOUDY    73  60  63 NE5       29.87R
MCCOOK         PTCLDY    74  65  73 S16G29    29.81R
OGALLALA       MOCLDY    51  49  90 NE10      29.91S
$$

NEZ005>010-023>029-035>040-094-231000-
NORTH CENTRAL NEBRASKA

CITY           SKY/WX    TMP DP  RH WIND       PRES   REMARKS
VALENTINE      CLOUDY    49  46  90 N8        29.97R
AINSWORTH      CLOUDY    49  47  93 N14G20    29.96R
BROKEN BOW     CLEAR     56  50  80 NE5G18    29.89F
O`NEILL        CLOUDY    55  53  94 N10       29.92F
ORD            PTCLDY    57  52  83 N7        29.90S
THEDFORD       TSTM      48  47  96 NE10      29.96R
$$

NEZ041-046>049-061>064-073>077-083>087-231000-
SOUTH CENTRAL NEBRASKA

CITY           SKY/WX    TMP DP  RH WIND       PRES   REMARKS
GRAND ISLAND   PTCLDY    73  68  84 S10       29.87R
AURORA         PTCLDY    73  68  83 S10       29.87R
HASTINGS       PTCLDY    75  65  70 S12G23    29.87S
HEBRON         CLEAR     73  67  81 S8        29.89S
HOLDREGE       PTCLDY    73  63  68 S13G21    29.85S
KEARNEY        CLEAR     74  65  73 S15       29.85S
YORK           PTCLDY    73  68  83 S12       29.88R
$$

NEZ011>018-030>034-042>045-231000-
NORTHEAST NEBRASKA

CITY           SKY/WX    TMP DP  RH WIND       PRES   REMARKS
NORFOLK        PTCLDY    69  65  86 CALM      29.88S
ALBION         PTCLDY    63  61  94 NW3       29.89S
BLAIR          CLEAR     73  67  82 S8        29.91R
COLUMBUS       PTCLDY    72  67  84 S7        29.89R
FREMONT        CLEAR     72  66  83 SE5       29.90R
TEKAMAH        CLEAR     73  67  81 S8        29.88R
WAYNE          PTCLDY    67  64  91 CALM      29.88S
$$

NEZ050>053-065>068-078-088>093-231000-
SOUTHEAST NEBRASKA

CITY           SKY/WX    TMP DP  RH WIND       PRES   REMARKS
LINCOLN        CLEAR     74  67  78 S13       29.89S
OMAHA EPPLEY   PTCLDY    73  67  81 SE8       29.91R
BEATRICE       CLEAR     74  67  80 S9        29.91R
FALLS CITY     CLEAR     71  67  87 SE6       29.92S
NEBRASKA CITY  CLEAR     72  70  95 S9        29.93R
PLATTSMOUTH    CLEAR     72  69  90 S8        29.91S
$$

NEZ044-045-051>053-067-231000-
OMAHA AREA

CITY           SKY/WX    TMP DP  RH WIND       PRES   REMARKS
OMAHA EPPLEY   PTCLDY    73  67  81 SE8       29.91R
BLAIR          CLEAR     73  67  82 S8        29.91R
FREMONT        CLEAR     72  66  83 SE5       29.90R
MILLARD        CLEAR     74  69  83 SE5       29.90S
OFFUTT AFB     CLEAR     72  67  84 SE5       29.90R
PLATTSMOUTH    CLEAR     72  69  90 S8        29.91S
WAHOO          FAIR      69  67  92 SE5       29.90R
$$



USA.gov is the U.S. government's official web portal to all federal, state and local government web resources and services.